Change the Weather History Date:

Monday, April 1, 2013

  Actual Average Record
Temperature  
Mean Temperature 58 °F 48 °F  
Max Temperature 72 °F 63 °F 81 °F (1932)
Min Temperature 43 °F 34 °F 19 °F (2008)
Degree Days  
Heating Degree Days 7 16  
Month to date heating degree days 7 16  
Since 1 July heating degree days 5515 5064  
Cooling Degree Days 0 0  
Month to date cooling degree days 0 0  
Year to date cooling degree days 0 0  
Growing Degree Days 8 (Base 50)    
Moisture  
Dew Point 26 °F    
Average Humidity 32    
Maximum Humidity 54    
Minimum Humidity 9    
Precipitation  
Precipitation T in 0.02 in 0.52 in (1975)
Month to date precipitation T 0.02  
Year to date precipitation 0.69 1.95  
Sea Level Pressure  
Sea Level Pressure 29.79 in    
Wind  
Wind Speed 9 mph (West)    
Max Wind Speed 31 mph    
Max Gust Speed 40 mph    
Visibility 10 miles    
Events      
T = Trace of Precipitation, MM = Missing Value Source: NWS Daily Summary

Daily Weather History Graph

Daily Weather History Graph

Search for Another Location

Airport or City:

Trip Planner

Search our weather history database for the weather conditions in past years. The results will help you decide how hot, cold, wet, or windy it might be!

Date:

Astronomy

Apr. 01, 2013 Rise Set
Actual Time 7:03 AM MDT 7:42 PM MDT
Civil Twilight 6:36 AM MDT 8:09 PM MDT
Nautical Twilight 6:04 AM MDT 8:41 PM MDT
Astronomical Twilight 5:32 AM MDT 9:14 PM MDT
Moon 12:51 AM MDT (4/1) 10:56 AM MDT (4/1)
Length of Visible Light 13h 33m
Length of Day
12h 39m
Waning Gibbous, 66% of the Moon is Illuminated
Apr 1
Waning Gibbous
Apr 2
Last Quarter
Apr 10
New
Apr 18
First Quarter
Apr 25
Full

Hourly Weather History & Observations

Time (MDT) Temp. Windchill Dew Point Humidity Pressure Visibility Wind Dir Wind Speed Gust Speed Precip Events Conditions
12:53 AM 57.9 °F - 32.0 °F 37% 29.83 in 10.0 mi NNW 4.6 mph - 0.00 in   Partly Cloudy
1:53 AM 53.1 °F - 30.9 °F 43% 29.84 in 10.0 mi SE 3.5 mph - N/A   Clear
2:53 AM 53.1 °F - 30.9 °F 43% 29.83 in 10.0 mi Calm Calm - N/A   Mostly Cloudy
3:53 AM 50.0 °F - 30.0 °F 46% 29.83 in 10.0 mi WNW 3.5 mph - N/A   Mostly Cloudy
4:53 AM 46.9 °F - 28.0 °F 48% 29.83 in 10.0 mi Calm Calm - N/A   Clear
5:53 AM 44.1 °F 41.5 °F 28.0 °F 53% 29.84 in 10.0 mi West 4.6 mph - N/A   Clear
6:53 AM 46.0 °F - 28.9 °F 51% 29.84 in 10.0 mi Calm Calm - N/A   Mostly Cloudy
7:53 AM 48.9 °F - 32.0 °F 52% 29.87 in 10.0 mi NW 6.9 mph - N/A   Overcast
8:53 AM 57.0 °F - 34.0 °F 42% 29.84 in 10.0 mi Variable 3.5 mph - N/A   Mostly Cloudy
9:53 AM 60.1 °F - 33.1 °F 36% 29.82 in 10.0 mi Variable 4.6 mph - N/A   Mostly Cloudy
10:53 AM 63.0 °F - 30.9 °F 30% 29.80 in 10.0 mi East 8.1 mph 17.3 mph N/A   Mostly Cloudy
11:53 AM 63.0 °F - 30.0 °F 29% 29.78 in 10.0 mi East 3.5 mph - N/A   Mostly Cloudy
12:35 PM 69.8 °F - 21.2 °F 16% 29.86 in 10.0 mi South 19.6 mph 25.3 mph N/A   Clear
12:53 PM 69.1 °F - 18.0 °F 14% 29.73 in 10.0 mi SSW 24.2 mph 28.8 mph N/A   Clear
1:53 PM 70.0 °F - 14.0 °F 12% 29.71 in 10.0 mi SW 25.3 mph 31.1 mph N/A   Clear
2:53 PM 71.1 °F - 14.0 °F 11% 29.69 in 10.0 mi South 17.3 mph 29.9 mph N/A   Scattered Clouds
3:53 PM 71.1 °F - 10.9 °F 10% 29.68 in 10.0 mi SW 17.3 mph 25.3 mph N/A   Partly Cloudy
4:53 PM 68.0 °F - 10.0 °F 11% 29.69 in 10.0 mi WSW 23.0 mph 28.8 mph N/A   Mostly Cloudy
5:11 PM 64.4 °F - 24.8 °F 22% 29.79 in 10.0 mi NNW 19.6 mph 29.9 mph N/A   Scattered Clouds
5:20 PM 62.6 °F - 24.8 °F 24% 29.80 in 10.0 mi NNW 21.9 mph 26.5 mph N/A   Mostly Cloudy
5:53 PM 63.0 °F - 23.0 °F 22% 29.73 in 10.0 mi WNW 12.7 mph 20.7 mph 0.00 in   Mostly Cloudy
6:53 PM 60.1 °F - 24.1 °F 25% 29.76 in 10.0 mi WNW 20.7 mph - 0.00 in   Overcast
7:53 PM 55.9 °F - 30.9 °F 39% 29.80 in 10.0 mi NNW 15.0 mph - N/A   Overcast
8:53 PM 53.1 °F - 28.9 °F 40% 29.78 in 10.0 mi NNW 8.1 mph - N/A   Clear
9:53 PM 48.9 °F - 28.0 °F 44% 29.81 in 10.0 mi Calm Calm - N/A   Clear
10:53 PM 46.9 °F - 28.0 °F 48% 29.81 in 10.0 mi West 3.5 mph - N/A   Clear
11:53 PM 45.0 °F 43.5 °F 27.0 °F 49% 29.82 in 10.0 mi SW 3.5 mph - N/A   Mostly Cloudy